Temperature
12 13 13 13 13 13 13 13 14 14 14 14 14 14 14 14 14 14 14 14 14 14 14 14 14 14 14 14 14 14 14 15 15 15 15 15 15 15 15 15 15 15 15
13 13 13 13 13 13 13 13 13 13 13 13 14 14 14 14 14 14 14 14 14 14 14 14 14 14 14 14 14 14 14 14 14 14 14 14 14 15 15 15 15 15 15
13 13 13 12 13 13 13 13 13 13 13 13 13 13 13 13 13 13 13 13 14 14 14 14 14 14 14 14 14 14 14 14 14 14 14 14 14 14 14 14 14 14 14
13 12 12 12 13 13 13 13 13 12 13 13 13 13 13 13 13 13 13 13 13 14 14 14 13 14 14 14 14 14 14 14 14 14 14 14 14 14 14 14 14 14 14
12 12 12 12 12 13 12 12 12 12 12 12 12 12 12 13 13 13 13 13 13 13 13 13 13 13 13 13 13 13 14 14 14 14 14 14 14 14 14 14 14 14 14
12 12 12 12 12 12 12 12 12 12 12 12 12 12 12 12 12 12 12 13 13 13 13 13 13 13 13 13 13 13 13 13 13 13 13 13 13 13 13 13 13 13 13
12 12 12 12 12 12 12 12 12 12 12 12 12 12 12 12 12 12 12 12 12 12 12 12 12 12 12 12 13 13 13 13 13 13 13 13 13 13 13 13 13 13 13
11 11 11 11 11 12 11 11 11 12 11 11 11 11 12 12 12 12 12 12 12 12 12 12 12 12 12 12 12 12 12 12 13 13 12 12 12 12 13 13 13 13 13
11 11 11 11 11 11 11 11 11 11 11 11 11 11 11 11 11 12 12 11 11 11 11 11 12 11 12 12 12 12 12 12 12 12 12 12 12 12 12 12 12 12 12
10 10 10 10 10 11 11 11 11 11 11 11 11 11 11 11 11 11 11 11 11 11 11 11 11 11 11 12 12 12 12 12 12 12 12 11 11 12 12 12 12 12 12
10 10 10 10 10 10 10 10 10 10 10 11 11 11 11 11 11 11 11 11 11 11 11 11 11 11 11 11 11 11 11 11 11 11 11 11 11 11 11 11 11 11 11
10 10 10 10 10 10 10 10 10 10 10 10 10 10 10 10 10 10 10 10 10 10 10 11 10 10 11 11 11 11 11 11 11 11 11 11 11 11 11 11 11 11 11
10 9 9 9 9 9 9 9 9 9 9 10 10 10 10 10 10 10 10 10 10 10 10 10 10 10 10 10 10 10 11 11 11 11 11 10 10 10 10 10 10 10 10
9 9 9 9 9 9 9 9 9 9 9 9 9 9 9 9 10 10 10 9 9 10 10 10 10 10 10 10 10 10 10 10 10 10 10 10 10 10 10 10 10 10 10
9 9 9 8 8 8 8 8 8 8 8 8 9 9 9 9 9 9 9 9 9 9 9 9 9 9 9 9 9 9 9 10 10 10 9 9 9 9 9 9 9 9 9
9 8 8 8 8 8 8 8 8 8 8 8 8 8 8 8 8 8 8 8 8 8 8 8 8 9 9 9 9 9 9 9 9 9 9 9 9 9 9 9 8 8 8
8 8 8 8 8 7 7 7 7 7 7 7 7 7 7 7 8 8 8 8 8 8 8 8 8 8 8 8 8 8 8 8 8 8 8 8 8 8 8 8 8 8 8
8 8 7 7 7 7 7 7 7 7 7 7 7 7 7 7 7 7 7 7 7 7 7 7 8 8 8 7 7 7 7 7 7 8 8 8 8 8 8 8 8 8 7
8 8 7 7 7 7 7 6 6 6 6 6 6 6 6 6 6 6 6 6 7 7 7 7 7 7 7 7 7 7 7 7 7 7 7 7 7 7 7 7 7 7 7
8 7 7 6 6 6 6 6 6 6 6 6 6 6 6 6 6 6 6 6 6 6 6 6 6 6 6 6 6 6 6 6 5 6 6 6 6 6 6 6 7 7 7
7 7 6 6 6 6 5 5 5 5 5 5 5 5 5 5 5 5 5 5 5 5 6 6 6 6 5 5 5 5 5 5 5 5 5 5 5 5 6 6 6 6 6
6 6 6 6 5 5 5 5 5 5 5 5 4 4 5 5 5 5 5 5 5 5 5 5 5 5 5 5 4 4 4 4 4 4 4 4 4 5 5 5 5 5 5
6 6 5 5 5 5 5 4 4 4 4 4 4 4 4 4 4 4 4 4 4 4 4 5 5 5 5 4 4 4 4 3 3 3 3 3 4 4 4 4 4 4 4
6 5 5 5 4 4 4 4 4 4 4 4 4 4 4 4 4 4 4 4 4 4 4 4 4 4 4 4 4 4 4 3 3 2 3 3 3 3 3 3 3 4 4
6 5 5 4 4 4 4 3 3 3 3 3 3 3 3 3 3 3 3 3 3 3 3 3 3 3 3 3 3 3 3 3 3 3 2 2 2 3 3 3 3 3 3
5 5 4 4 4 3 3 3 3 3 3 3 3 2 2 3 3 3 3 3 3 3 3 3 3 3 3 3 3 3 3 3 3 2 2 2 2 2 2 2 2 2 2
Wind_Speed
2 3 9 10 11 11 12 12 12 12 12 13 13 13 13 14 14 14 14 14 14 14 14 14 14 15 14 15 15 16 16 17 17 17 16 16 16 16 16 15 14 14 15
5 7 10 11 12 12 12 12 12 12 12 13 13 13 13 13 14 14 14 14 14 14 14 14 14 14 14 14 14 14 15 15 16 16 16 15 16 16 16 15 14 13 15
7 8 10 11 12 13 13 12 12 12 13 13 14 14 13 13 14 14 14 14 14 14 13 13 13 13 13 13 13 14 14 15 15 15 14 13 14 15 15 15 15 15 15
9 10 11 12 13 13 13 13 13 13 13 14 14 14 14 14 14 14 14 14 14 14 13 13 13 13 13 13 13 14 14 15 15 14 12 12 12 14 15 15 14 15 15
9 10 12 14 13 13 13 13 13 13 13 14 14 14 14 14 14 14 14 13 13 13 13 13 13 13 13 13 13 14 14 15 14 14 13 12 12 14 14 15 14 14 14
9 10 12 14 14 13 13 13 13 13 13 14 13 13 14 13 13 13 13 13 13 13 13 13 13 13 13 13 14 14 14 14 14 13 12 12 12 13 14 14 14 14 13
9 10 12 14 13 13 13 13 13 13 13 13 13 13 13 12 13 13 12 12 12 13 13 13 13 13 13 13 14 14 14 14 13 12 11 11 12 13 13 13 14 13 13
10 10 12 13 13 13 12 12 13 13 13 13 13 12 12 12 12 12 12 12 12 12 13 13 14 14 14 14 14 14 14 13 12 11 11 10 12 12 12 12 13 13 12
10 10 9 11 12 12 12 12 12 12 12 12 12 12 12 11 11 11 11 11 11 11 12 13 14 14 14 14 15 15 15 14 12 10 10 9 11 11 12 12 12 12 12
8 8 8 10 10 10 10 11 12 12 12 11 11 12 11 11 11 11 11 11 11 11 11 12 13 13 14 14 14 14 14 13 13 12 10 9 10 10 10 11 11 11 11
7 6 7 8 8 9 9 10 11 11 11 11 10 11 10 10 10 10 10 10 10 11 11 11 12 12 13 14 14 14 13 12 12 11 10 10 10 9 10 10 11 11 10
9 7 6 7 8 8 8 9 9 9 9 10 10 10 10 10 9 9 10 10 10 10 11 11 11 11 12 11 12 12 11 12 11 10 10 11 10 10 9 10 10 10 9
9 8 7 7 8 8 6 7 7 7 8 9 9 10 10 9 9 8 8 8 9 9 10 10 10 10 10 10 10 10 10 11 10 10 10 10 10 9 9 9 9 9 9
9 8 7 7 7 7 7 6 6 6 6 6 8 9 9 7 7 6 6 7 8 8 8 8 9 9 10 10 10 10 10 10 10 10 10 11 10 9 9 8 8 8 8
10 9 8 7 7 7 6 5 5 5 6 7 8 8 8 7 5 5 5 6 6 7 7 7 7 8 8 9 9 9 9 9 10 10 10 11 10 9 8 8 7 7 7
11 10 9 8 8 8 5 5 5 6 7 7 7 7 8 8 6 5 4 5 5 6 6 6 6 7 6 7 8 8 8 8 9 10 10 11 11 9 9 8 7 6 6
12 11 10 9 8 8 7 6 6 6 7 6 6 8 8 8 7 6 4 3 4 5 7 7 7 7 5 6 6 7 7 7 8 8 9 9 10 10 9 8 8 7 7
11 11 10 9 8 8 6 6 6 6 6 6 7 7 8 8 8 6 4 3 4 6 6 5 4 4 4 3 3 4 5 6 7 7 8 8 9 9 9 9 8 7 7
12 12 11 9 9 8 6 6 6 6 5 5 6 6 7 8 8 7 4 4 5 5 4 4 3 3 3 3 3 3 4 4 5 6 7 7 8 8 9 9 9 8 8
10 10 10 10 9 8 6 5 4 4 3 4 5 6 7 7 7 7 5 5 5 4 2 3 3 3 3 2 4 4 3 3 4 4 5 6 7 8 8 8 9 8 8
10 10 10 10 9 8 6 6 5 4 3 2 3 5 6 7 7 6 5 4 4 3 2 3 3 4 3 2 3 3 3 3 3 3 4 5 6 7 8 8 8 8 8
11 11 11 10 9 9 7 5 3 4 3 2 2 4 6 6 7 6 5 4 4 3 3 2 3 2 1 2 2 1 1 2 3 3 2 3 4 6 6 7 8 8 8
11 11 10 10 9 8 6 5 4 3 2 2 2 2 3 6 6 6 5 5 4 4 4 3 3 3 2 1 1 2 2 2 1 2 2 2 2 3 4 5 6 7 7
10 10 10 9 9 8 7 7 8 6 4 4 4 3 2 5 5 6 6 5 4 4 4 4 2 2 3 1 0 1 0 1 2 0 2 2 2 2 2 3 4 6 6
9 9 9 9 8 8 8 8 8 6 4 3 3 3 3 2 4 5 6 5 4 3 4 3 2 2 2 2 1 1 1 1 0 1 1 2 2 2 1 1 2 4 6
7 8 8 8 8 8 8 8 8 8 6 6 5 5 3 2 2 4 5 4 4 4 4 3 3 3 2 2 1 1 1 1 1 1 1 1 2 2 2 2 1 2 4
Wind_Direction
174 156 132 118 111 105 99 94 90 87 84 83 82 81 80 80 79 78 76 73 72 73 72 71 70 71 72 73 72 73 73 71 70 67 67 70 73 76 76 75 76 76 81
151 143 130 121 114 107 102 97 94 91 87 85 82 80 80 79 78 77 75 74 73 72 72 72 71 70 70 73 72 72 75 74 71 67 64 67 72 76 76 75 79 82 83
127 128 127 121 114 108 104 101 97 94 91 88 85 81 80 79 76 75 72 72 72 71 71 70 70 70 71 73 72 72 74 76 71 66 63 63 69 74 76 76 78 80 81
124 123 125 122 115 109 105 102 100 97 94 90 86 83 80 78 77 75 72 71 70 70 70 69 69 70 71 72 75 74 74 73 70 66 60 60 68 74 75 74 76 78 79
118 121 127 122 116 111 107 104 101 98 96 93 89 84 81 79 77 78 75 72 69 69 70 68 68 69 72 73 75 75 73 69 67 64 61 61 66 74 76 74 74 77 78
116 119 127 122 116 111 108 106 103 99 97 94 91 88 85 82 79 79 76 74 72 69 69 68 66 66 69 71 73 75 73 67 63 62 62 62 68 75 75 74 73 76 78
118 117 124 122 117 113 109 107 105 102 99 95 91 89 86 83 81 78 78 76 75 73 69 68 65 66 68 71 73 74 72 66 62 60 59 65 71 75 75 74 72 71 75
123 118 125 124 120 115 111 108 106 105 102 98 94 90 88 85 82 79 78 77 75 74 72 71 69 67 68 71 73 70 68 63 60 58 57 64 73 75 75 75 73 70 72
119 114 112 116 118 116 113 110 108 105 103 101 98 94 90 86 84 81 78 78 78 77 76 73 70 67 69 73 72 69 65 60 55 52 56 61 73 75 75 76 76 72 72
115 112 111 111 113 114 115 114 110 106 103 101 100 96 90 88 85 82 77 78 80 80 79 76 72 70 68 71 70 67 64 58 54 48 51 61 73 77 78 77 78 75 73
130 124 116 110 109 111 114 115 112 109 105 101 100 97 88 84 84 80 78 77 79 80 77 77 76 71 67 68 68 63 61 60 55 47 50 59 67 76 80 79 78 76 74
153 148 132 122 117 114 115 112 109 107 103 99 99 97 91 87 84 82 80 77 77 77 76 74 71 69 65 66 66 63 62 59 55 47 50 57 62 68 73 76 78 78 75
159 152 146 134 129 121 113 112 107 106 102 99 101 102 98 89 83 79 76 67 68 70 69 67 64 63 66 70 71 67 62 60 56 49 49 54 58 61 65 68 71 75 75
159 157 152 140 134 129 125 123 117 111 109 107 109 110 105 93 82 78 74 70 69 73 71 68 68 65 67 71 74 71 63 61 55 48 48 51 53 54 60 67 68 69 69
164 163 160 148 142 137 129 128 124 122 123 123 121 119 117 107 95 88 81 77 72 76 77 75 72 71 69 69 71 73 67 62 59 53 47 47 48 51 55 60 64 67 67
172 169 163 158 150 143 138 135 133 130 129 127 127 130 128 122 114 104 87 81 76 79 83 84 83 81 74 76 72 72 71 70 67 59 53 46 44 46 50 53 59 63 66
175 169 167 163 154 151 149 148 141 138 134 130 133 135 134 131 127 117 101 87 86 90 89 86 82 80 74 72 68 68 72 73 70 65 58 52 43 39 43 46 50 53 56
171 169 169 166 160 157 151 147 144 142 135 133 136 138 139 140 137 125 113 103 106 100 94 88 78 76 65 62 57 57 68 73 70 68 65 60 53 41 37 42 44 45 46
173 170 169 166 163 158 147 140 139 138 134 136 137 138 141 143 143 133 126 122 120 104 92 94 74 86 81 70 67 56 56 65 67 69 68 63 60 52 42 34 36 41 42
170 167 166 164 161 151 139 128 122 118 123 129 134 139 142 144 144 137 129 126 122 110 88 92 90 77 90 87 78 57 33 46 64 66 72 66 61 55 48 39 36 35 39
164 166 168 166 165 158 158 158 159 166 165 152 139 144 146 146 144 139 133 130 126 126 124 120 111 96 73 80 78 51 19 24 46 44 69 72 64 53 49 44 42 39 33
172 173 172 171 169 169 171 169 168 160 164 161 148 146 150 151 151 148 144 148 141 133 130 127 122 118 95 69 99 102 47 1 10 20 32 62 66 55 45 38 39 36 35
176 177 176 177 173 170 160 145 135 117 107 142 171 175 164 162 161 158 157 154 155 154 161 164 154 136 150 38 82 137 157 202 304 345 11 30 52 57 41 34 32 29 29
182 178 174 173 172 170 161 165 166 172 179 195 184 179 178 169 166 162 160 160 162 162 169 181 166 148 151 163 78 47 102 150 160 265 337 357 7 29 20 22 21 23 24
176 174 173 170 172 172 173 175 178 182 180 163 157 162 171 169 169 165 163 162 163 165 168 174 168 162 162 167 170 153 71 47 59 169 238 306 337 331 331 348 12 24 16
170 169 169 170 176 177 179 182 186 185 174 166 167 173 177 174 175 170 166 167 169 169 172 177 173 171 171 153 158 159 169 177 193 193 208 249 284 296 315 311 325 24 10
Height
1531 1533 1534 1535 1535 1536 1536 1537 1537 1537 1538 1538 1538 1538 1538 1539 1539 1539 1539 1538 1538 1538 1538 1538 1538 1538 1538 1538 1538 1538 1538 1538 1538 1538 1538 1538 1539 1539 1539 1539 1539 1539 1540
1529 1532 1534 1534 1535 1536 1536 1537 1537 1538 1538 1538 1538 1539 1539 1539 1539 1539 1539 1539 1539 1539 1539 1539 1539 1539 1539 1539 1539 1540 1540 1540 1540 1540 1540 1540 1540 1540 1540 1541 1541 1541 1541
1529 1531 1533 1534 1535 1536 1536 1537 1537 1538 1538 1538 1539 1539 1539 1539 1540 1539 1539 1539 1539 1539 1539 1540 1540 1540 1540 1540 1540 1541 1541 1541 1541 1541 1541 1541 1542 1542 1542 1542 1543 1543 1543
1529 1531 1532 1534 1535 1535 1536 1537 1537 1538 1538 1539 1539 1539 1539 1539 1540 1539 1539 1540 1540 1540 1540 1540 1541 1541 1541 1541 1541 1541 1542 1542 1542 1542 1542 1543 1543 1543 1544 1544 1544 1544 1545
1528 1530 1532 1533 1534 1535 1536 1537 1537 1538 1538 1539 1539 1539 1539 1539 1539 1539 1539 1540 1540 1540 1540 1541 1541 1541 1541 1542 1542 1542 1542 1543 1543 1543 1543 1544 1544 1545 1545 1545 1545 1546 1546
1527 1529 1531 1533 1534 1535 1535 1536 1537 1538 1538 1539 1539 1539 1539 1539 1539 1539 1539 1540 1540 1540 1540 1541 1541 1541 1542 1542 1542 1543 1543 1543 1544 1544 1544 1545 1545 1545 1545 1546 1546 1547 1547
1526 1529 1531 1532 1533 1534 1535 1536 1536 1537 1538 1538 1539 1539 1539 1539 1539 1539 1539 1539 1540 1540 1540 1541 1541 1541 1542 1542 1543 1543 1544 1544 1544 1544 1545 1545 1546 1546 1546 1546 1547 1547 1548
1526 1528 1530 1531 1533 1534 1534 1535 1536 1537 1537 1538 1538 1538 1539 1539 1539 1539 1539 1539 1539 1540 1540 1541 1541 1541 1542 1542 1543 1544 1544 1544 1545 1545 1545 1546 1546 1546 1547 1547 1547 1548 1548
1526 1527 1529 1530 1531 1533 1534 1534 1535 1536 1536 1537 1537 1538 1538 1538 1538 1538 1538 1539 1539 1539 1540 1540 1541 1541 1542 1542 1543 1544 1544 1544 1545 1545 1545 1546 1547 1547 1547 1547 1547 1548 1548
1525 1526 1528 1529 1530 1531 1532 1534 1534 1535 1536 1536 1537 1537 1537 1538 1538 1538 1538 1538 1539 1539 1539 1540 1540 1541 1541 1542 1543 1543 1544 1544 1545 1545 1545 1546 1546 1547 1547 1547 1547 1548 1548
1523 1525 1526 1528 1529 1530 1531 1532 1533 1534 1534 1535 1535 1536 1536 1537 1537 1537 1537 1538 1538 1538 1539 1539 1540 1540 1541 1542 1542 1543 1543 1544 1544 1545 1545 1546 1546 1546 1547 1547 1547 1547 1548
1520 1522 1524 1526 1527 1529 1530 1531 1532 1533 1533 1534 1534 1535 1535 1536 1536 1536 1537 1537 1537 1537 1538 1538 1539 1540 1540 1541 1542 1542 1543 1543 1544 1544 1545 1546 1546 1546 1546 1547 1547 1547 1547
1518 1520 1522 1524 1525 1527 1528 1529 1530 1531 1532 1533 1533 1534 1534 1534 1535 1535 1536 1536 1536 1537 1537 1538 1538 1539 1540 1540 1541 1541 1542 1542 1543 1543 1544 1545 1545 1545 1545 1546 1546 1547 1547
1516 1518 1520 1521 1523 1525 1526 1527 1528 1529 1530 1531 1532 1532 1533 1533 1534 1534 1534 1535 1535 1536 1536 1537 1537 1538 1539 1539 1540 1540 1541 1541 1542 1542 1543 1543 1544 1544 1545 1545 1546 1546 1546
1513 1515 1517 1519 1521 1523 1524 1525 1526 1527 1528 1529 1530 1531 1531 1532 1532 1533 1533 1534 1534 1535 1535 1536 1536 1537 1538 1538 1539 1539 1540 1540 1540 1541 1541 1542 1543 1543 1544 1544 1544 1545 1545
1510 1512 1514 1516 1518 1520 1522 1523 1524 1525 1526 1527 1528 1529 1530 1531 1531 1531 1532 1532 1533 1534 1534 1535 1535 1536 1536 1537 1537 1538 1538 1539 1539 1540 1540 1541 1541 1542 1542 1543 1543 1543 1544
1506 1509 1511 1513 1516 1518 1520 1521 1522 1523 1524 1525 1526 1527 1528 1529 1529 1530 1530 1531 1531 1532 1533 1533 1534 1535 1535 1536 1536 1536 1537 1537 1538 1538 1539 1539 1540 1540 1541 1541 1541 1542 1542
1503 1506 1508 1511 1513 1515 1517 1519 1520 1521 1522 1523 1524 1525 1526 1526 1527 1528 1528 1529 1530 1530 1531 1532 1532 1533 1533 1534 1534 1535 1535 1536 1536 1537 1537 1537 1538 1538 1539 1539 1539 1540 1540
1500 1502 1505 1507 1509 1512 1514 1516 1517 1518 1520 1521 1521 1522 1523 1524 1525 1526 1527 1527 1528 1529 1529 1530 1531 1531 1532 1532 1532 1533 1534 1534 1535 1535 1535 1535 1536 1536 1537 1537 1538 1538 1538
1497 1499 1502 1504 1506 1508 1511 1512 1514 1515 1516 1518 1518 1520 1521 1522 1523 1524 1524 1525 1526 1527 1527 1528 1529 1530 1530 1530 1531 1531 1532 1533 1533 1533 1533 1534 1534 1534 1535 1535 1535 1535 1536
1493 1495 1498 1500 1502 1504 1506 1507 1509 1511 1512 1514 1515 1517 1518 1519 1520 1521 1522 1523 1523 1524 1525 1526 1527 1527 1528 1529 1529 1529 1530 1531 1531 1531 1531 1532 1532 1532 1533 1533 1533 1533 1533
1488 1491 1493 1496 1498 1500 1502 1504 1506 1508 1509 1511 1512 1514 1515 1516 1517 1518 1519 1520 1521 1522 1523 1523 1524 1525 1526 1527 1528 1527 1528 1530 1528 1529 1529 1530 1530 1530 1531 1530 1531 1531 1531
1484 1486 1489 1492 1494 1497 1499 1501 1503 1505 1506 1507 1508 1510 1511 1513 1514 1515 1516 1517 1518 1519 1520 1521 1522 1522 1523 1525 1526 1527 1527 1526 1526 1527 1527 1528 1528 1528 1528 1528 1528 1528 1529
1479 1483 1485 1488 1491 1493 1495 1497 1498 1499 1500 1502 1504 1506 1508 1509 1511 1512 1513 1514 1515 1516 1517 1518 1519 1520 1521 1521 1523 1524 1525 1524 1525 1524 1525 1525 1526 1526 1526 1526 1526 1526 1526
1476 1479 1481 1484 1487 1489 1491 1493 1495 1496 1498 1500 1501 1503 1504 1506 1507 1508 1510 1511 1512 1513 1514 1515 1516 1517 1518 1519 1520 1520 1521 1522 1522 1522 1521 1522 1522 1523 1523 1523 1524 1523 1523
1473 1475 1478 1480 1483 1485 1487 1489 1491 1493 1494 1496 1497 1499 1500 1502 1503 1504 1506 1507 1508 1509 1511 1512 1513 1514 1515 1516 1517 1518 1518 1519 1519 1519 1519 1519 1519 1520 1520 1520 1521 1521 1520